| time (UTC) | temp F | wind direction | speed MPH | gust MPH | rain 1hr in | rain 24hr in | rain mn in | humidity % | barometer mb |
| 20260905221653 | 54 | 180 | 0.0 | 0.0 | 0.00 | 1.86 | 1.56 | 100 | |
| 20260905221154 | 54 | 180 | 0.0 | 0.0 | 0.00 | 1.86 | 1.56 | 100 | |
| 20260905220656 | 54 | 180 | 0.0 | 0.0 | 0.00 | 1.86 | 1.56 | 100 | |
| 20260905220154 | 54 | 180 | 0.0 | 0.0 | 0.00 | 1.86 | 1.56 | 100 | |
| 20260905215654 | 54 | 180 | 0.0 | 0.0 | 0.00 | 1.86 | 1.56 | 100 | |
| 20260905215154 | 54 | 180 | 0.0 | 0.0 | 0.00 | 1.86 | 1.56 | 100 | |
| 20260905214654 | 55 | 180 | 0.0 | 0.0 | 0.00 | 1.86 | 1.56 | 100 | |
| 20260905214154 | 54 | 180 | 0.0 | 0.0 | 0.00 | 1.86 | 1.56 | 100 | |
| 20260905213654 | 54 | 180 | 0.0 | 0.0 | 0.00 | 1.86 | 1.56 | 100 | |
| 20260905213154 | 55 | 180 | 0.0 | 0.0 | 0.00 | 1.86 | 1.56 | 100 | |
| 20260905212654 | 55 | 180 | 0.0 | 0.0 | 0.00 | 1.86 | 1.56 | 100 | |
| 20260905212154 | 55 | 180 | 0.0 | 0.0 | 0.00 | 1.86 | 1.56 | 100 | |
| 20260905211654 | 55 | 180 | 0.0 | 0.0 | 0.00 | 1.86 | 1.56 | 100 | |
| 20260905211154 | 55 | 180 | 0.0 | 0.0 | 0.00 | 1.86 | 1.56 | 100 | |
| 20260905210654 | 55 | 180 | 0.0 | 0.0 | 0.00 | 1.86 | 1.56 | 100 | |
| 20260905210154 | 55 | 180 | 0.0 | 0.0 | 0.00 | 1.86 | 1.56 | 100 | |
| 20260905205654 | 55 | 180 | 0.0 | 0.0 | 0.00 | 1.86 | 1.56 | 100 | |
| 20260905205154 | 55 | 180 | 0.0 | 0.0 | 0.00 | 1.86 | 1.56 | 100 | |
| 20260905204654 | 55 | 180 | 0.0 | 0.0 | 0.00 | 1.86 | 1.56 | 100 | |
| 20260905204154 | 55 | 180 | 0.0 | 0.0 | 0.00 | 1.86 | 1.56 | 100 | |
| 20260905203654 | 55 | 180 | 0.0 | 0.0 | 0.00 | 1.86 | 1.56 | 100 | |
| 20260905203154 | 55 | 180 | 0.0 | 0.0 | 0.00 | 1.86 | 1.56 | 100 | |
| 20260905202654 | 55 | 180 | 0.0 | 0.0 | 0.00 | 1.86 | 1.56 | 100 | |
| 20260905202154 | 55 | 180 | 0.0 | 0.0 | 0.00 | 1.86 | 1.56 | 100 | |
| 20260905201654 | 55 | 180 | 0.0 | 0.0 | 0.00 | 1.86 | 1.56 | 100 | |
| 20260905201154 | 54 | 180 | 0.0 | 0.0 | 0.00 | 1.86 | 1.56 | 100 | |
| 20260905200654 | 54 | 180 | 0.0 | 0.0 | 0.00 | 1.86 | 1.56 | 100 | |
| 20260905200154 | 54 | 180 | 0.0 | 0.0 | 0.00 | 1.86 | 1.56 | 100 | |
| 20260905195654 | 54 | 180 | 0.0 | 0.0 | 0.00 | 1.86 | 1.56 | 100 | |
| 20260905195154 | 54 | 180 | 0.0 | 0.0 | 0.00 | 1.86 | 1.56 | 100 | |
| 20260905194654 | 54 | 180 | 0.0 | 0.0 | 0.00 | 1.86 | 1.56 | 100 | |
| 20260905194154 | 54 | 180 | 0.0 | 0.0 | 0.00 | 1.86 | 1.56 | 100 | |
| 20260905193654 | 54 | 180 | 0.0 | 0.0 | 0.00 | 1.86 | 1.56 | 100 | |
| 20260905193154 | 54 | 180 | 0.0 | 0.0 | 0.00 | 1.86 | 1.56 | 100 | |
| 20260905192654 | 54 | 180 | 0.0 | 0.0 | 0.00 | 1.86 | 1.56 | 100 | |
| 20260905192154 | 54 | 180 | 0.0 | 0.0 | 0.00 | 1.86 | 1.56 | 99 | |
| 20260905191654 | 54 | 180 | 0.0 | 0.0 | 0.00 | 1.86 | 1.56 | 99 | |
| 20260905191154 | 54 | 180 | 0.0 | 0.0 | 0.00 | 1.86 | 1.56 | 98 | |
| 20260905190654 | 55 | 180 | 0.0 | 0.0 | 0.00 | 1.86 | 1.56 | 98 | |
| 20260905190156 | 55 | 180 | 0.0 | 0.0 | 0.00 | 1.86 | 1.56 | 98 | |
| 20260905185654 | 55 | 180 | 0.0 | 0.0 | 0.00 | 1.86 | 1.56 | 98 | |
| 20260905185154 | 55 | 180 | 0.0 | 0.0 | 0.00 | 1.86 | 1.56 | 98 | |
| 20260905184654 | 55 | 180 | 0.0 | 0.0 | 0.00 | 1.87 | 1.56 | 98 | |
| 20260905184154 | 55 | 180 | 0.0 | 0.0 | 0.00 | 1.87 | 1.56 | 97 | |
| 20260905183654 | 55 | 180 | 0.0 | 0.0 | 0.00 | 1.87 | 1.56 | 97 | |
| 20260905183154 | 55 | 180 | 0.0 | 0.0 | 0.00 | 1.87 | 1.56 | 97 | |
| 20260905182654 | 55 | 180 | 0.0 | 0.0 | 0.00 | 1.87 | 1.56 | 96 | |
| 20260905182154 | 55 | 180 | 0.0 | 0.0 | 0.00 | 1.87 | 1.56 | 95 | |
| 20260905181654 | 56 | 180 | 0.0 | 0.0 | 0.00 | 1.87 | 1.56 | 93 | |
| 20260905181154 | 56 | 180 | 0.0 | 0.0 | 0.00 | 1.87 | 1.56 | 92 | |
| 20260905180654 | 57 | 180 | 0.0 | 0.0 | 0.00 | 1.87 | 1.56 | 89 | |
| 20260905180154 | 57 | 180 | 0.0 | 0.0 | 0.00 | 1.87 | 1.56 | 87 | |
| 20260905175654 | 58 | 180 | 0.0 | 0.0 | 0.00 | 1.87 | 1.56 | 85 | |
| 20260905175154 | 59 | 180 | 0.0 | 0.0 | 0.00 | 1.87 | 1.56 | 82 | |
| 20260905174654 | 59 | 180 | 0.0 | 0.0 | 0.00 | 1.87 | 1.56 | 81 | |
| 20260905174154 | 60 | 180 | 0.0 | 0.0 | 0.00 | 1.87 | 1.56 | 78 | |
| 20260905173654 | 61 | 180 | 0.0 | 0.0 | 0.00 | 1.87 | 1.56 | 76 | |
| 20260905173154 | 61 | 180 | 0.0 | 0.0 | 0.00 | 1.87 | 1.56 | 73 | |
| 20260905172654 | 62 | 180 | 0.0 | 0.0 | 0.00 | 1.87 | 1.56 | 68 | |
| 20260905172154 | 63 | 180 | 0.0 | 0.0 | 0.00 | 1.87 | 1.56 | 63 | |
| 20260905171654 | 64 | 180 | 0.0 | 0.0 | 0.00 | 1.87 | 1.56 | 60 | |
| 20260905171154 | 65 | 180 | 0.0 | 2.0 | 0.00 | 1.87 | 1.56 | 58 | |
| 20260905170654 | 65 | 180 | 0.0 | 0.0 | 0.00 | 1.87 | 1.56 | 55 | |
| 20260905170154 | 66 | 180 | 0.0 | 0.0 | 0.00 | 1.87 | 1.56 | 54 | |
| 20260905165654 | 66 | 180 | 0.0 | 0.0 | 0.00 | 1.87 | 1.56 | 53 | |
| 20260905165154 | 66 | 180 | 0.0 | 3.0 | 0.00 | 1.87 | 1.56 | 53 | |
| 20260905164654 | 66 | 180 | 0.0 | 3.0 | 0.00 | 1.87 | 1.56 | 53 | |
| 20260905164154 | 67 | 180 | 1.0 | 4.0 | 0.00 | 1.87 | 1.56 | 53 | |
| 20260905163154 | 67 | 180 | 2.0 | 6.0 | 0.00 | 1.87 | 1.56 | 53 | |
| 20260905162654 | 67 | 180 | 4.0 | 4.0 | 0.00 | 1.87 | 1.56 | 53 | |
| 20260905162154 | 67 | 180 | 0.0 | 0.0 | 0.00 | 1.87 | 1.56 | 54 | |
| 20260905161654 | 67 | 180 | 0.0 | 4.0 | 0.00 | 1.87 | 1.56 | 54 | |
| 20260905161154 | 68 | 180 | 0.0 | 5.0 | 0.00 | 1.87 | 1.56 | 54 | |
| 20260905160654 | 68 | 180 | 0.0 | 6.0 | 0.00 | 1.87 | 1.56 | 54 | |
| 20260905160154 | 68 | 180 | 0.0 | 7.0 | 0.00 | 1.87 | 1.56 | 54 | |
| 20260905155654 | 68 | 180 | 0.0 | 8.0 | 0.00 | 1.87 | 1.56 | 54 | |
| 20260905155154 | 68 | 180 | 0.0 | 7.0 | 0.00 | 1.87 | 1.56 | 54 | |
| 20260905154654 | 68 | 180 | 1.0 | 9.0 | 0.00 | 1.87 | 1.56 | 54 | |
| 20260905154155 | 68 | 180 | 3.0 | 11.0 | 0.00 | 1.87 | 1.56 | 52 | |
| 20260905153655 | 69 | 180 | 3.0 | 8.0 | 0.00 | 1.87 | 1.56 | 52 | |
| 20260905153155 | 69 | 180 | 0.0 | 7.0 | 0.00 | 1.87 | 1.56 | 52 | |
| 20260905152655 | 69 | 180 | 0.0 | 3.0 | 0.00 | 1.87 | 1.56 | 53 | |
| 20260905152155 | 70 | 180 | 2.0 | 7.0 | 0.00 | 1.87 | 1.56 | 51 | |
| 20260905151655 | 70 | 180 | 1.0 | 3.0 | 0.00 | 1.87 | 1.56 | 53 | |
| 20260905151155 | 69 | 180 | 2.0 | 4.0 | 0.00 | 1.87 | 1.56 | 52 | |
| 20260905150655 | 69 | 180 | 1.0 | 7.0 | 0.00 | 1.87 | 1.56 | 51 | |
| 20260905150155 | 69 | 180 | 4.0 | 9.0 | 0.00 | 1.87 | 1.56 | 50 | |
| 20260905145655 | 69 | 180 | 0.0 | 7.0 | 0.00 | 1.87 | 1.56 | 52 | |
| 20260905145155 | 69 | 180 | 1.0 | 7.0 | 0.00 | 1.87 | 1.56 | 52 | |
| 20260905144655 | 69 | 180 | 1.0 | 7.0 | 0.00 | 1.87 | 1.56 | 53 | |
| 20260905144155 | 68 | 180 | 0.0 | 3.0 | 0.00 | 1.87 | 1.56 | 55 | |
| 20260905143655 | 68 | 180 | 0.0 | 5.0 | 0.00 | 1.87 | 1.56 | 56 | |
| 20260905143155 | 68 | 180 | 0.0 | 5.0 | 0.00 | 1.87 | 1.56 | 55 | |
| 20260905142655 | 68 | 180 | 4.0 | 5.0 | 0.00 | 1.87 | 1.56 | 54 | |
| 20260905142155 | 68 | 180 | 0.0 | 6.0 | 0.00 | 1.87 | 1.56 | 54 | |
| 20260905141655 | 69 | 180 | 3.0 | 8.0 | 0.00 | 1.87 | 1.56 | 53 | |
| 20260905141155 | 68 | 180 | 4.0 | 8.0 | 0.00 | 1.87 | 1.56 | 53 | |
| 20260905140655 | 68 | 180 | 0.0 | 9.0 | 0.00 | 1.87 | 1.56 | 51 | |
| 20260905140155 | 68 | 180 | 4.0 | 4.0 | 0.00 | 1.87 | 1.56 | 55 | |
| 20260905135655 | 68 | 180 | 0.0 | 8.0 | 0.00 | 1.87 | 1.56 | 53 | |
| 20260905135155 | 68 | 180 | 1.0 | 6.0 | 0.00 | 1.87 | 1.56 | 53 | |
| 20260905134655 | 68 | 180 | 5.0 | 6.0 | 0.00 | 1.87 | 1.56 | 52 | |
| 20260905134155 | 68 | 180 | 0.0 | 7.0 | 0.00 | 1.87 | 1.56 | 52 | |
| 20260905133655 | 68 | 180 | 7.0 | 7.0 | 0.00 | 1.87 | 1.56 | 51 | |
| 20260905133155 | 68 | 180 | 2.0 | 10.0 | 0.00 | 1.87 | 1.56 | 51 | |
| 20260905132655 | 68 | 180 | 1.0 | 6.0 | 0.00 | 1.87 | 1.56 | 50 | |
| 20260905132155 | 69 | 180 | 1.0 | 12.0 | 0.00 | 1.87 | 1.56 | 52 | |
| 20260905131655 | 69 | 180 | 0.0 | 6.0 | 0.00 | 1.87 | 1.56 | 50 | |
| 20260905131155 | 69 | 180 | 1.0 | 15.0 | 0.00 | 1.87 | 1.56 | 49 | |
| 20260905130655 | 69 | 180 | 13.0 | 13.0 | 0.08 | 1.87 | 1.56 | 51 | |
| 20260905130155 | 68 | 180 | 1.0 | 12.0 | 0.08 | 1.87 | 1.56 | 50 | |
| 20260905125655 | 68 | 180 | 3.0 | 8.0 | 0.08 | 1.87 | 1.56 | 50 | |
| 20260905125158 | 68 | 180 | 5.0 | 9.0 | 0.08 | 1.87 | 1.56 | 50 | |
| 20260905124655 | 68 | 180 | 1.0 | 11.0 | 0.08 | 1.87 | 1.56 | 50 | |
| 20260905124155 | 68 | 180 | 9.0 | 14.0 | 0.12 | 1.87 | 1.56 | 50 | |
| 20260905123655 | 68 | 180 | 6.0 | 12.0 | 0.23 | 1.87 | 1.56 | 51 | |
| 20260905123155 | 68 | 180 | 10.0 | 10.0 | 0.26 | 1.87 | 1.56 | 53 | |
| 20260905122655 | 68 | 180 | 2.0 | 9.0 | 0.26 | 1.87 | 1.56 | 54 | |
| 20260905122155 | 68 | 180 | 0.0 | 9.0 | 0.33 | 1.87 | 1.56 | 54 | |
| 20260905121655 | 69 | 180 | 1.0 | 9.0 | 0.44 | 1.87 | 1.56 | 52 | |
| 20260905121155 | 69 | 180 | 0.0 | 7.0 | 0.82 | 1.87 | 1.56 | 53 | |
| 20260905120655 | 69 | 180 | 4.0 | 8.0 | 1.04 | 1.79 | 1.48 | 53 | |
| 20260905120155 | 70 | 180 | 4.0 | 9.0 | 1.15 | 1.79 | 1.48 | 52 | |
| 20260905115655 | 69 | 180 | 0.0 | 11.0 | 1.23 | 1.79 | 1.48 | 54 | |
| 20260905115209 | 69 | 180 | 8.0 | 14.0 | 1.34 | 1.79 | 1.48 | 53 | |
| 20260905114655 | 69 | 180 | 8.0 | 11.0 | 1.39 | 1.79 | 1.48 | 54 | |
| 20260905114157 | 68 | 180 | 1.0 | 10.0 | 1.35 | 1.75 | 1.44 | 58 | |
| 20260905113655 | 68 | 180 | 5.0 | 12.0 | 1.26 | 1.64 | 1.33 | 57 | |
| 20260905113157 | 67 | 180 | 2.0 | 11.0 | 1.24 | 1.61 | 1.30 | 60 | |
| 20260905112655 | 67 | 180 | 3.0 | 13.0 | 1.24 | 1.61 | 1.30 | 61 | |
| 20260905112155 | 66 | 180 | 3.0 | 9.0 | 1.17 | 1.54 | 1.23 | 64 | |
| 20260905111655 | 65 | 180 | 4.0 | 12.0 | 1.06 | 1.43 | 1.11 | 65 | |
| 20260905111155 | 65 | 180 | 6.0 | 12.0 | 0.70 | 1.05 | 0.74 | 66 | |
| 20260905110655 | 66 | 180 | 7.0 | 12.0 | 0.42 | 0.75 | 0.44 | 67 | |
| 20260905110155 | 65 | 180 | 9.0 | 16.0 | 0.31 | 0.64 | 0.32 | 69 | |
| 20260905105655 | 65 | 180 | 9.0 | 11.0 | 0.23 | 0.56 | 0.25 | 70 | |
| 20260905105155 | 64 | 180 | 3.0 | 14.0 | 0.12 | 0.45 | 0.14 | 70 | |
| 20260905104655 | 64 | 180 | 0.0 | 7.0 | 0.07 | 0.40 | 0.09 | 74 | |
| 20260905104155 | 64 | 180 | 0.0 | 7.0 | 0.09 | 0.40 | 0.09 | 74 | |
| 20260905103655 | 63 | 180 | 1.0 | 10.0 | 0.07 | 0.38 | 0.07 | 75 | |
| 20260905103155 | 63 | 180 | 8.0 | 9.0 | 0.06 | 0.37 | 0.06 | 78 | |
| 20260905102655 | 63 | 180 | 2.0 | 5.0 | 0.06 | 0.37 | 0.06 | 76 | |
| 20260905102155 | 63 | 180 | 3.0 | 6.0 | 0.06 | 0.37 | 0.06 | 78 | |
| 20260905101655 | 62 | 180 | 0.0 | 3.0 | 0.06 | 0.37 | 0.06 | 76 | |
| 20260905101155 | 62 | 180 | 3.0 | 7.0 | 0.04 | 0.35 | 0.03 | 74 | |
| 20260905100655 | 62 | 180 | 5.0 | 5.0 | 0.02 | 0.33 | 0.02 | 74 | |
| 20260905100155 | 62 | 180 | 1.0 | 8.0 | 0.02 | 0.33 | 0.02 | 74 | |
| 20260905095655 | 62 | 180 | 0.0 | 4.0 | 0.02 | 0.33 | 0.02 | 75 | |
| 20260905095155 | 61 | 180 | 0.0 | 9.0 | 0.02 | 0.33 | 0.02 | 75 | |
| 20260905094658 | 61 | 180 | 1.0 | 7.0 | 0.02 | 0.33 | 0.02 | 77 | |
| 20260905094156 | 61 | 180 | 4.0 | 5.0 | 0.00 | 0.31 | 0.00 | 80 | |
| 20260905093656 | 61 | 180 | 3.0 | 11.0 | 0.00 | 0.31 | 0.00 | 80 | |
| 20260905093155 | 61 | 180 | 2.0 | 5.0 | 0.00 | 0.31 | 0.00 | 85 | |
| 20260905092655 | 60 | 180 | 3.0 | 9.0 | 0.00 | 0.31 | 0.00 | 89 | |
| 20260905092156 | 60 | 180 | 0.0 | 3.0 | 0.00 | 0.31 | 0.00 | 88 | |
| 20260905091313 | 60 | 180 | 0.0 | 0.0 | 0.00 | 0.31 | 0.00 | 92 | |
| 20260905090657 | 60 | 180 | 0.0 | 4.0 | 0.01 | 0.31 | 0.00 | 92 | |
| 20260905090213 | 60 | 180 | 0.0 | 1.0 | 0.03 | 0.31 | 0.00 | 93 | |
| 20260905085836 | 60 | 180 | 0.0 | 5.0 | 0.03 | 0.31 | 0.00 | 93 | |
| 20260905085156 | 60 | 180 | 0.0 | 4.0 | 0.03 | 0.31 | 0.00 | 93 | |
| 20260905084712 | 60 | 180 | 4.0 | 11.0 | 0.03 | 0.31 | 0.31 | 95 | |
| 20260905084156 | 60 | 180 | 0.0 | 0.0 | 0.03 | 0.31 | 0.31 | 95 | |
| 20260905083656 | 60 | 180 | 0.0 | 0.0 | 0.03 | 0.31 | 0.31 | 95 | |
| 20260905083203 | 60 | 180 | 0.0 | 0.0 | 0.03 | 0.31 | 0.31 | 95 | |
| 20260905082656 | 60 | 180 | 0.0 | 6.0 | 0.03 | 0.31 | 0.31 | 95 | |
| 20260905082156 | 60 | 180 | 0.0 | 6.0 | 0.03 | 0.31 | 0.31 | 96 | |
| 20260905081656 | 60 | 180 | 5.0 | 10.0 | 0.03 | 0.31 | 0.31 | 96 | |
| 20260905081156 | 60 | 180 | 0.0 | 6.0 | 0.03 | 0.31 | 0.31 | 95 | |
| 20260905080811 | 61 | 180 | 5.0 | 9.0 | 0.02 | 0.30 | 0.30 | 92 | |
| 20260905080156 | 62 | 180 | 8.0 | 10.0 | 0.00 | 0.28 | 0.28 | 88 | |
| 20260905075656 | 62 | 180 | 8.0 | 11.0 | 0.00 | 0.28 | 0.28 | 83 | |
| 20260905075156 | 63 | 180 | 4.0 | 10.0 | 0.00 | 0.28 | 0.28 | 82 | |
| 20260905074656 | 63 | 180 | 1.0 | 9.0 | 0.00 | 0.28 | 0.28 | 81 | |
| 20260905074156 | 63 | 180 | 6.0 | 10.0 | 0.00 | 0.28 | 0.28 | 80 | |
| 20260905073656 | 63 | 180 | 0.0 | 7.0 | 0.00 | 0.28 | 0.28 | 80 | |
| 20260905073156 | 63 | 180 | 0.0 | 11.0 | 0.03 | 0.28 | 0.28 | 80 | |
| 20260905072656 | 63 | 180 | 2.0 | 11.0 | 0.03 | 0.28 | 0.28 | 78 | |
| 20260905072156 | 63 | 180 | 5.0 | 16.0 | 0.03 | 0.28 | 0.28 | 75 | |
| 20260905071656 | 64 | 180 | 3.0 | 11.0 | 0.03 | 0.28 | 0.28 | 77 | |
| 20260905071156 | 64 | 180 | 4.0 | 4.0 | 0.03 | 0.28 | 0.28 | 77 | |
| 20260905070656 | 63 | 180 | 0.0 | 14.0 | 0.03 | 0.28 | 0.28 | 75 | |
| 20260905070156 | 64 | 180 | 4.0 | 8.0 | 0.03 | 0.28 | 0.28 | 74 | |
| 20260905065656 | 64 | 180 | 0.0 | 7.0 | 0.03 | 0.28 | 0.28 | 76 | |
| 20260905065156 | 64 | 180 | 0.0 | 11.0 | 0.03 | 0.28 | 0.28 | 75 | |
| 20260905064656 | 63 | 180 | 11.0 | 11.0 | 0.03 | 0.28 | 0.28 | 75 | |
| 20260905064156 | 64 | 180 | 1.0 | 7.0 | 0.03 | 0.28 | 0.28 | 76 | |
| 20260905063656 | 64 | 180 | 1.0 | 9.0 | 0.03 | 0.28 | 0.28 | 76 | |
| 20260905063156 | 64 | 180 | 3.0 | 5.0 | 0.00 | 0.25 | 0.25 | 77 | |
| 20260905062656 | 64 | 180 | 0.0 | 8.0 | 0.00 | 0.25 | 0.25 | 76 | |
| 20260905062156 | 64 | 180 | 3.0 | 10.0 | 0.00 | 0.25 | 0.25 | 80 | |
| 20260905061656 | 64 | 180 | 2.0 | 9.0 | 0.00 | 0.25 | 0.25 | 81 | |
| 20260905061156 | 64 | 180 | 4.0 | 9.0 | 0.00 | 0.25 | 0.25 | 83 | |
| 20260905060656 | 63 | 180 | 5.0 | 8.0 | 0.00 | 0.25 | 0.25 | 83 | |
| 20260905060156 | 63 | 180 | 6.0 | 8.0 | 0.00 | 0.25 | 0.25 | 84 | |
| 20260905055656 | 64 | 180 | 5.0 | 9.0 | 0.00 | 0.25 | 0.25 | 83 | |
| 20260905055156 | 64 | 180 | 3.0 | 10.0 | 0.00 | 0.25 | 0.25 | 83 | |
| 20260905054658 | 64 | 180 | 6.0 | 7.0 | 0.00 | 0.25 | 0.25 | 83 | |
| 20260905054156 | 64 | 180 | 2.0 | 11.0 | 0.00 | 0.25 | 0.25 | 83 | |
| 20260905053656 | 63 | 180 | 0.0 | 9.0 | 0.00 | 0.25 | 0.25 | 85 | |
| 20260905053156 | 63 | 180 | 5.0 | 6.0 | 0.00 | 0.25 | 0.25 | 86 | |
| 20260905052656 | 63 | 180 | 0.0 | 4.0 | 0.00 | 0.25 | 0.25 | 89 | |
| 20260905052156 | 63 | 180 | 1.0 | 6.0 | 0.00 | 0.25 | 0.25 | 90 | |
| 20260905051656 | 62 | 180 | 0.0 | 3.0 | 0.00 | 0.25 | 0.25 | 90 | |
| 20260905051156 | 62 | 180 | 0.0 | 7.0 | 0.00 | 0.25 | 0.25 | 90 | |
| 20260905050656 | 62 | 180 | 0.0 | 2.0 | 0.00 | 0.25 | 0.25 | 91 | |
| 20260905050156 | 62 | 180 | 0.0 | 3.0 | 0.01 | 0.25 | 0.25 | 91 | |
| 20260905045656 | 62 | 180 | 0.0 | 3.0 | 0.02 | 0.25 | 0.25 | 90 | |
| 20260905045156 | 62 | 180 | 0.0 | 3.0 | 0.09 | 0.25 | 0.25 | 90 | |
| 20260905044656 | 62 | 180 | 0.0 | 2.0 | 0.09 | 0.25 | 0.25 | 89 | |
| 20260905044156 | 62 | 180 | 2.0 | 3.0 | 0.09 | 0.25 | 0.25 | 89 | |
| 20260905043656 | 62 | 180 | 2.0 | 6.0 | 0.09 | 0.25 | 0.25 | 89 | |
| 20260905043156 | 62 | 180 | 0.0 | 3.0 | 0.09 | 0.25 | 0.25 | 89 | |
| 20260905042656 | 62 | 180 | 0.0 | 6.0 | 0.09 | 0.25 | 0.25 | 89 | |
| 20260905042156 | 62 | 180 | 0.0 | 2.0 | 0.09 | 0.25 | 0.25 | 89 | |
| 20260905041656 | 62 | 180 | 0.0 | 0.0 | 0.10 | 0.25 | 0.25 | 88 | |
| 20260905041156 | 62 | 180 | 0.0 | 2.0 | 0.10 | 0.25 | 0.25 | 88 | |
| 20260905040656 | 62 | 180 | 0.0 | 4.0 | 0.11 | 0.25 | 0.25 | 88 | |
| 20260905040156 | 62 | 180 | 0.0 | 5.0 | 0.11 | 0.24 | 0.24 | 87 | |
| 20260905035656 | 62 | 180 | 0.0 | 2.0 | 0.16 | 0.23 | 0.22 | 87 | |
| 20260905035156 | 63 | 180 | 0.0 | 3.0 | 0.09 | 0.16 | 0.16 | 87 | |
| 20260905034656 | 62 | 180 | 0.0 | 7.0 | 0.09 | 0.16 | 0.16 | 86 | |
| 20260905034156 | 63 | 180 | 0.0 | 4.0 | 0.09 | 0.16 | 0.16 | 86 | |
| 20260905033656 | 62 | 180 | 0.0 | 1.0 | 0.09 | 0.16 | 0.16 | 85 | |
| 20260905033156 | 63 | 180 | 0.0 | 1.0 | 0.09 | 0.16 | 0.16 | 85 | |
| 20260905032656 | 63 | 180 | 0.0 | 7.0 | 0.09 | 0.16 | 0.16 | 86 | |
| 20260905032156 | 64 | 180 | 0.0 | 5.0 | 0.09 | 0.16 | 0.16 | 84 | |
| 20260905031656 | 64 | 180 | 1.0 | 4.0 | 0.08 | 0.15 | 0.15 | 82 | |
| 20260905031156 | 64 | 180 | 3.0 | 8.0 | 0.08 | 0.15 | 0.15 | 80 | |
| 20260905030656 | 64 | 180 | 3.0 | 12.0 | 0.07 | 0.14 | 0.14 | 73 | |
| 20260905030157 | 65 | 180 | 6.0 | 19.0 | 0.06 | 0.13 | 0.13 | 69 | |
| 20260905025656 | 66 | 180 | 8.0 | 8.0 | 0.04 | 0.07 | 0.07 | 71 | |
| 20260905025157 | 66 | 180 | 4.0 | 11.0 | 0.06 | 0.07 | 0.07 | 71 | |
| 20260905024656 | 66 | 180 | 4.0 | 7.0 | 0.06 | 0.07 | 0.07 | 76 | |
| 20260905024157 | 66 | 180 | 0.0 | 8.0 | 0.06 | 0.07 | 0.07 | 79 | |
| 20260905023657 | 66 | 180 | 0.0 | 7.0 | 0.06 | 0.07 | 0.07 | 81 | |
| 20260905023157 | 65 | 180 | 0.0 | 7.0 | 0.06 | 0.07 | 0.07 | 83 | |
| 20260905022657 | 65 | 180 | 4.0 | 9.0 | 0.06 | 0.07 | 0.07 | 85 | |
| 20260905022157 | 65 | 180 | 0.0 | 0.0 | 0.06 | 0.07 | 0.07 | 82 | |
| 20260905021657 | 66 | 180 | 0.0 | 0.0 | 0.06 | 0.07 | 0.07 | 79 | |
| 20260905021157 | 67 | 180 | 0.0 | 0.0 | 0.06 | 0.07 | 0.07 | 77 | |
| 20260905020657 | 67 | 180 | 0.0 | 2.0 | 0.06 | 0.07 | 0.07 | 75 | |
| 20260905020157 | 68 | 180 | 1.0 | 7.0 | 0.06 | 0.07 | 0.07 | 73 | |
| 20260905015657 | 68 | 180 | 3.0 | 8.0 | 0.02 | 0.03 | 0.03 | 71 | |
| 20260905015157 | 68 | 180 | 0.0 | 5.0 | 0.00 | 0.01 | 0.01 | 70 | |
| 20260905014657 | 68 | 180 | 5.0 | 7.0 | 0.00 | 0.01 | 0.01 | 68 | |
| 20260905014157 | 68 | 180 | 0.0 | 2.0 | 0.00 | 0.01 | 0.01 | 67 | |
| 20260905013657 | 68 | 180 | 1.0 | 7.0 | 0.00 | 0.01 | 0.01 | 67 | |
| 20260905013157 | 68 | 180 | 0.0 | 5.0 | 0.00 | 0.01 | 0.01 | 67 | |
| 20260905012657 | 68 | 180 | 0.0 | 4.0 | 0.00 | 0.01 | 0.01 | 69 | |
| 20260905012157 | 68 | 180 | 1.0 | 3.0 | 0.00 | 0.01 | 0.01 | 67 | |
| 20260905011657 | 68 | 180 | 0.0 | 2.0 | 0.00 | 0.01 | 0.01 | 68 | |
| 20260905011157 | 68 | 180 | 0.0 | 3.0 | 0.00 | 0.01 | 0.01 | 68 | |
| 20260905010657 | 68 | 180 | 0.0 | 9.0 | 0.00 | 0.01 | 0.01 | 68 | |
| 20260905010157 | 67 | 180 | 0.0 | 10.0 | 0.00 | 0.01 | 0.01 | 72 | |
| 20260905005657 | 65 | 180 | 1.0 | 9.0 | 0.00 | 0.01 | 0.01 | 81 | |
| 20260905005157 | 64 | 180 | 0.0 | 5.0 | 0.00 | 0.01 | 0.01 | 88 | |
| 20260905004700 | 63 | 180 | 0.0 | 0.0 | 0.00 | 0.01 | 0.01 | 90 | |
| 20260905004157 | 63 | 180 | 0.0 | 0.0 | 0.00 | 0.01 | 0.01 | 91 | |
| 20260905003657 | 63 | 180 | 0.0 | 0.0 | 0.00 | 0.01 | 0.01 | 92 | |
| 20260905003157 | 63 | 180 | 0.0 | 0.0 | 0.00 | 0.01 | 0.01 | 92 | |
| 20260905002657 | 63 | 180 | 0.0 | 2.0 | 0.00 | 0.01 | 0.01 | 91 | |
| 20260905002157 | 62 | 180 | 0.0 | 3.0 | 0.00 | 0.01 | 0.01 | 91 | |
| 20260905001657 | 62 | 180 | 0.0 | 0.0 | 0.00 | 0.01 | 0.01 | 94 | |
| 20260905001157 | 63 | 180 | 0.0 | 0.0 | 0.00 | 0.01 | 0.01 | 94 | |
| 20260905000657 | 63 | 180 | 0.0 | 0.0 | 0.00 | 0.01 | 0.01 | 93 | |
| 20260905000157 | 63 | 180 | 0.0 | 0.0 | 0.00 | 0.01 | 0.01 | 93 | |
| 20260904235657 | 63 | 180 | 0.0 | 0.0 | 0.00 | 0.01 | 0.01 | 94 | |
| 20260904235157 | 62 | 180 | 0.0 | 0.0 | 0.00 | 0.01 | 0.01 | 94 | |
| 20260904234657 | 62 | 180 | 0.0 | 0.0 | 0.00 | 0.01 | 0.01 | 95 | |
| 20260904234157 | 62 | 180 | 0.0 | 0.0 | 0.00 | 0.01 | 0.01 | 95 | |
| 20260904233657 | 62 | 180 | 0.0 | 0.0 | 0.00 | 0.01 | 0.01 | 96 | |
| 20260904233157 | 61 | 180 | 0.0 | 0.0 | 0.00 | 0.01 | 0.01 | 96 | |
| 20260904232657 | 61 | 180 | 0.0 | 0.0 | 0.00 | 0.01 | 0.01 | 98 | |
| 20260904232157 | 60 | 180 | 0.0 | 0.0 | 0.00 | 0.01 | 0.01 | 98 | |
| 20260904231657 | 60 | 180 | 0.0 | 0.0 | 0.00 | 0.01 | 0.01 | 98 | |
| 20260904231157 | 60 | 180 | 0.0 | 0.0 | 0.00 | 0.01 | 0.01 | 99 | |
| 20260904230657 | 59 | 180 | 0.0 | 0.0 | 0.00 | 0.01 | 0.01 | 99 | |
| 20260904230157 | 59 | 180 | 0.0 | 0.0 | 0.00 | 0.01 | 0.01 | 99 | |
| 20260904225657 | 59 | 180 | 0.0 | 0.0 | 0.00 | 0.01 | 0.01 | 99 | |
| 20260904225157 | 59 | 180 | 0.0 | 0.0 | 0.00 | 0.01 | 0.01 | 100 | |
| 20260904224657 | 59 | 180 | 0.0 | 0.0 | 0.00 | 0.01 | 0.01 | 100 | |
| 20260904224157 | 59 | 180 | 0.0 | 0.0 | 0.00 | 0.01 | 0.01 | 100 | |
| 20260904222657 | 58 | 180 | 0.0 | 0.0 | 0.00 | 0.01 | 0.01 | 100 | |
| 20260904222157 | 58 | 180 | 0.0 | 0.0 | 0.00 | 0.01 | 0.01 | 100 |